NOAA 16 DEB, 41411

Orbit data source: Space-Track

NOAA 16 DEB, 41411 is space debris in SSO originally from a launch on Thu, 21 Sep 2000 UTC launched from the Air Force Western Test Range (AFWTR). Debris objects in space refer to the collection of defunct objects orbiting the Earth. Examples of debris include non-operational satellites, rocket bodies, and fragments generated from explosions, collisions, or faulty payload assembly.

Loading next visibility...
Identifier
41411, 2000-055KQ
Orbit
SSO
Country
Flag of USUS
Related business
Manufacturer
Unknown
Mission
Spacecraft
Bus & Motor
Unknown
Mass
Unknown
Launch date (UTC)
2000-09-21 (26 years ago)
Launch vehicle
Unknown
Launch site
Air Force Western Test Range (AFWTR)
Object type
Payload
Rocket body
Debris
Shape & HBR
Unknown shape, 0.1 m
Radar Cross Section
Medium (>0.1 m² and <1 m²)

Expand to show TLE details & history
Last TLE update: 2 days ago

TLE from 2 days ago
0 NOAA 16 DEB
1 41411U 00055KQ  26174.09046813  .00003807  00000-0  12479-2 0  9995
2 41411  98.8420 302.6286 0016537 149.3666 210.8490 14.38937011537587
Epoch: 2026-06-23T02:10Z
TLE epoch observation values (Epoch: 2026-06-23T02:10:16.446Z)
Latitude
0.00003°
Longitude
-1.20695°
Altitude
775.093 km
Speed
7.461 km/s
True Right ascension
20h 10m 30s
True Declination
0° 00' 00"
Sunlit
Object was in full shadow at epoch
Visualization orbit readout
Latitude
Unknown
Longitude
Unknown
Altitude
Unknown
Speed
Unknown
Apparent Right ascension
Unknown
Apparent Declination
Unknown
Sunlit
N/A
Visualization observer readout
Local Sidereal Time
01:59:36
Azimuth
Unknown
Elevation
Unknown
Doppler factor
Unknown
Orbital elements
Apogee altitude
770.955 km
Perigee altitude
747.35 km
Semi-major axis
7,137.289 km
Eccentricity
0.00165
Inclination
98.842°
RAAN
302.6286°
Arg. of periapsis
149.3666°
True anomaly
210.752°
Mean anomaly
210.849°
Eccentric anomaly
210.80048°
Mean motion
3.59951 °/min
Orbital period
100.01 mins
BSTAR
0.0012479
Loading maneuver chart data...
Computing Atmospheric mass density...
Loading historical data...
Loading historical data...
Loading historical data...
Loading historical data...
Loading historical data...
Loading historical data...
Loading historical data...

Documentation

Showing up to 5 results
|